User: anonymous   Login
Location: Spradlin Observatory
(33.4706°N, 86.3221°W)
Time: 06:29:53
(UTC-05:00)
Language:

COSMOS 2406 - Orbit

View from above orbital plane
View from above orbital plane
View from above satellite
View from above satellite

Ground track
Ground track

The orbit data is extracted from the following two-line orbital elements,

1 28352U 04021A   16237.89525951 -.00000202  00000-0 -85147-4 0  9995
2 28352  71.0052  23.3068 0015246 196.6357 163.4266 14.11458334629036
Epoch (UTC): 24 August 2016 21:29:10
Eccentricity: 0.0015246
inclination: 71.0052°
perigee height: 843 km
apogee height: 865 km
right ascension of ascending node: 23.3068°
argument of perigee: 196.6357°
revolutions per day: 14.11458334
mean anomaly at epoch: 163.4266°
orbit number at epoch: 62903

The dashed part of the orbit path shows where the satellite is in the earth's shadow,  

DLR